period_start,C,m1,H,J0,J1,J2,J3,J4,J5,JA,JB,JC,JD,JJ,JK,JN,#
2014-11-07 00:00:25,0.11,1.61,0.00,23.43,27.82,30.76,4.71,26.93,991.21,2030.99,2806.20,2872.10,3096.02,350.14,338.64,13.64,0000 0000 0000 0000 000000
2014-11-07 00:05:26,0.11,1.61,0.00,23.41,27.82,30.74,4.62,26.98,991.21,2030.99,2805.13,2871.36,3095.11,349.72,338.19,13.67,0000 0000 0000 0000 000000
2014-11-07 00:10:27,0.12,1.61,0.00,23.31,27.82,30.73,4.72,26.91,991.17,2030.99,2803.90,2870.43,3094.14,350.46,339.02,13.70,0000 0000 0000 0000 000000
2014-11-07 00:15:28,0.09,1.61,0.00,23.30,27.82,30.72,4.60,26.85,991.18,2030.99,2802.85,2869.69,3093.28,349.69,338.44,13.73,0000 0000 0000 0000 000000
2014-11-07 00:20:30,0.12,1.62,0.00,23.31,27.82,30.70,4.76,27.04,991.22,2030.99,2801.65,2868.78,3092.30,350.18,338.92,13.76,0000 0000 0000 0000 000000
2014-11-07 00:25:31,0.10,1.62,0.00,23.35,27.82,30.71,4.67,26.98,991.22,2030.99,2800.54,2867.98,3091.39,350.25,338.84,13.78,0000 0000 0000 0000 000000
2014-11-07 00:30:33,0.11,1.63,0.00,23.25,27.81,30.69,4.69,26.93,991.22,2030.99,2799.45,2867.12,3090.50,349.56,338.45,13.81,0000 0000 0000 0000 000000
2014-11-07 00:35:34,0.11,1.63,0.00,23.17,27.80,30.74,4.80,27.05,991.22,2030.99,2798.27,2866.25,3089.64,350.46,339.30,13.84,0000 0000 0000 0000 000000
2014-11-07 00:40:35,0.10,1.63,0.00,23.28,27.80,30.73,4.78,27.00,991.22,2030.99,2797.12,2865.46,3088.81,350.73,339.37,13.87,0000 0000 0000 0000 000000
2014-11-07 00:45:36,0.08,1.63,0.00,23.40,27.80,30.70,4.71,26.93,991.22,2030.99,2796.05,2864.77,3087.97,349.84,338.33,13.90,0000 0000 0000 0000 000000
2014-11-07 00:50:38,0.09,1.64,0.00,23.39,27.80,30.70,4.58,26.90,991.22,2030.99,2794.94,2863.99,3087.08,349.69,338.30,13.93,0000 0000 0000 0000 000000
2014-11-07 00:55:39,0.13,1.64,0.00,23.24,27.80,30.69,4.68,26.85,991.22,2031.01,2793.76,2863.14,3086.27,349.59,338.33,13.96,0000 0000 0000 0000 000000
2014-11-07 01:00:40,0.11,1.64,0.00,23.26,27.80,30.69,4.71,26.98,991.22,2031.01,2792.58,2862.33,3085.39,350.59,339.15,13.99,0000 0000 0000 0000 000000
2014-11-07 01:05:42,0.11,1.65,0.00,23.27,27.79,30.68,4.67,26.97,991.23,2031.01,2791.47,2861.50,3084.49,349.72,338.41,14.02,0000 0000 0000 0000 000000
2014-11-07 01:10:43,0.09,1.65,0.00,23.12,27.78,30.70,4.71,26.80,991.23,2031.01,2790.27,2860.74,3083.69,349.91,338.96,14.05,0000 0000 0000 0000 000000
2014-11-07 01:15:44,0.13,1.65,0.00,23.17,27.77,30.73,4.65,26.92,991.25,2031.02,2788.85,2859.82,3082.73,349.86,338.68,14.08,0000 0000 0000 0000 000000
2014-11-07 01:20:45,0.13,1.66,0.00,23.36,27.77,30.70,4.63,26.84,991.25,2031.02,2787.56,2858.83,3081.69,350.05,338.52,14.11,0000 0000 0000 0000 000000
2014-11-07 01:25:46,0.15,1.66,0.00,23.42,27.77,30.67,4.68,26.87,991.24,2031.02,2785.97,2857.71,3080.53,350.20,338.70,14.14,0000 0000 0000 0000 000000
2014-11-07 01:30:47,0.17,1.67,0.00,23.21,27.77,30.68,4.63,26.83,991.25,2031.05,2784.28,2856.54,3079.17,349.47,338.34,14.16,0000 0000 0000 0000 000000
2014-11-07 01:35:48,0.53,1.68,0.00,23.06,27.77,30.66,4.72,26.87,991.24,2031.05,2779.43,2853.06,3075.56,350.04,339.06,14.19,0000 0000 0000 0000 000000
2014-11-07 01:40:50,0.29,1.69,0.00,23.20,27.77,30.67,4.69,26.91,991.25,2031.02,2775.65,2850.38,3072.70,350.15,338.94,14.22,0000 0000 0000 0000 000000
2014-11-07 01:45:51,0.14,1.70,0.00,23.08,27.77,30.68,4.61,26.82,991.23,2031.03,2773.91,2849.15,3071.41,349.33,338.37,14.25,0000 0000 0000 0000 000000
2014-11-07 01:50:52,0.14,1.70,0.00,23.04,27.76,30.71,4.68,26.86,991.26,2031.07,2772.46,2848.12,3070.39,350.07,339.13,14.28,0000 0000 0000 0000 000000
2014-11-07 01:55:53,0.26,1.71,0.00,23.21,27.75,30.68,4.71,26.87,991.25,2031.05,2769.92,2846.23,3068.39,350.77,339.63,14.31,0000 0000 0000 0000 000000
2014-11-07 02:00:55,0.18,1.71,0.00,23.38,27.75,30.65,4.70,26.96,991.25,2031.01,2767.87,2844.78,3066.80,350.03,338.56,14.34,0000 0000 0000 0000 000000
2014-11-07 02:05:56,0.17,1.72,0.00,23.21,27.75,30.66,4.66,26.82,991.25,2031.01,2765.94,2843.60,3065.56,349.83,338.48,14.37,0000 0000 0000 0000 000000
2014-11-07 02:10:57,0.14,1.72,0.00,23.01,27.75,30.69,4.67,26.88,991.26,2031.02,2764.46,2842.55,3064.42,349.34,338.52,14.40,0000 0000 0000 0000 000000
2014-11-07 02:15:59,0.10,1.73,0.00,22.90,27.75,30.69,4.72,26.89,991.25,2031.01,2763.23,2841.73,3063.56,349.80,338.94,14.43,0000 0000 0000 0000 000000
2014-11-07 02:21:00,0.10,1.73,0.00,23.00,27.75,30.67,4.70,26.86,991.23,2031.03,2762.08,2840.93,3062.59,350.42,339.35,14.46,0000 0000 0000 0000 000000
2014-11-07 02:26:01,0.12,1.73,0.00,23.07,27.75,30.67,4.76,26.91,991.24,2031.02,2760.85,2840.06,3061.59,350.68,339.70,14.49,0000 0000 0000 0000 000000
2014-11-07 02:31:03,0.09,1.74,0.00,22.90,27.75,30.65,4.68,26.82,991.24,2031.04,2759.85,2839.25,3060.88,349.98,339.10,14.52,0000 0000 0000 0000 000000
2014-11-07 02:36:04,0.12,1.74,0.00,22.83,27.75,30.66,4.67,26.94,991.23,2031.06,2758.75,2838.55,3060.01,349.94,339.14,14.55,0000 0000 0000 0000 000000
2014-11-07 02:41:06,0.11,1.74,0.00,22.84,27.73,30.68,4.78,27.02,991.24,2031.05,2757.52,2837.72,3059.08,350.18,339.26,14.57,0000 0000 0000 0000 000000
2014-11-07 02:46:07,0.09,1.75,0.00,22.83,27.73,30.66,4.77,27.01,991.24,2031.04,2756.50,2836.96,3058.26,349.97,338.98,14.60,0000 0000 0000 0000 000000
2014-11-07 02:51:08,0.15,1.75,0.00,22.82,27.72,30.66,4.63,26.88,991.23,2031.13,2755.37,2836.11,3057.34,349.87,339.13,14.63,0000 0000 0000 0000 000000
2014-11-07 02:56:10,0.13,1.75,0.00,22.80,27.72,30.66,4.71,26.93,991.23,2031.27,2754.25,2835.29,3056.58,350.10,339.16,14.66,0000 0000 0000 0000 000000
2014-11-07 03:01:11,0.08,1.76,0.00,22.77,27.72,30.67,4.67,27.00,991.23,2031.21,2753.10,2834.51,3055.74,349.87,338.86,14.69,0000 0000 0000 0000 000000
2014-11-07 03:06:12,0.11,1.76,0.00,22.78,27.72,30.64,4.64,26.82,991.23,2031.13,2751.94,2833.63,3054.70,349.66,338.93,14.72,0000 0000 0000 0000 000000
2014-11-07 03:11:13,0.10,1.76,0.00,22.79,27.71,30.64,4.61,26.91,991.23,2031.26,2750.94,2832.89,3053.87,349.81,339.00,14.75,0000 0000 0000 0000 000000
2014-11-07 03:16:14,0.15,1.77,0.00,22.79,27.70,30.64,4.70,26.93,991.23,2031.41,2749.92,2832.06,3053.02,350.20,339.54,14.78,0000 0000 0000 0000 000000
2014-11-07 03:21:15,0.09,1.77,0.00,22.78,27.70,30.63,4.63,26.93,991.23,2031.45,2748.76,2831.21,3052.09,349.70,338.76,14.81,0000 0000 0000 0000 000000
2014-11-07 03:26:17,0.12,1.77,0.00,22.78,27.70,30.65,4.72,26.80,991.23,2031.35,2747.55,2830.36,3051.15,349.79,339.21,14.84,0000 0000 0000 0000 000000
2014-11-07 03:31:18,0.14,1.78,0.00,22.77,27.70,30.63,4.72,26.90,991.23,2031.45,2746.46,2829.59,3050.26,349.99,339.34,14.87,0000 0000 0000 0000 000000
2014-11-07 03:36:19,0.14,1.78,0.00,22.77,27.69,30.59,4.64,27.01,991.23,2031.73,2745.35,2828.83,3049.43,349.96,339.22,14.90,0000 0000 0000 0000 000000
2014-11-07 03:41:21,0.10,1.78,0.00,22.77,27.67,30.61,4.76,26.92,991.23,2031.80,2744.24,2828.04,3048.71,350.51,339.69,14.93,0000 0000 0000 0000 000000
2014-11-07 03:46:22,0.11,1.79,0.00,22.78,27.67,30.59,4.61,26.87,991.23,2031.93,2743.36,2827.34,3047.88,349.73,338.84,14.96,0000 0000 0000 0000 000000
2014-11-07 03:51:23,0.11,1.79,0.00,22.79,27.67,30.59,4.71,26.91,991.22,2031.92,2742.27,2826.51,3046.96,349.71,339.07,14.99,0000 0000 0000 0000 000000
2014-11-07 03:56:25,0.11,1.79,0.00,22.80,27.67,30.56,4.78,26.81,991.22,2031.92,2741.07,2825.68,3045.97,350.38,339.57,15.01,0000 0000 0000 0000 000000
2014-11-07 04:01:26,0.10,1.80,0.00,22.82,27.66,30.55,4.61,26.74,991.22,2031.88,2739.88,2824.80,3045.03,349.96,339.38,15.04,0000 0000 0000 0000 000000
2014-11-07 04:06:27,0.11,1.80,0.00,22.80,27.65,30.56,4.72,26.89,991.22,2031.90,2738.80,2824.01,3044.16,350.25,339.31,15.07,0000 0000 0000 0000 000000
2014-11-07 04:11:29,0.12,1.81,0.00,22.79,27.65,30.50,4.70,26.83,991.21,2031.95,2737.76,2823.17,3043.36,350.51,339.73,15.10,0000 0000 0000 0000 000000
2014-11-07 04:16:30,0.10,1.81,0.00,22.82,27.65,30.55,4.68,26.88,991.18,2031.87,2736.62,2822.42,3042.41,349.78,339.03,15.13,0000 0000 0000 0000 000000
2014-11-07 04:21:32,0.12,1.81,0.00,22.82,27.65,30.53,4.76,26.95,991.21,2031.87,2735.53,2821.54,3041.47,350.13,338.95,15.16,0000 0000 0000 0000 000000
2014-11-07 04:26:34,0.10,1.81,0.00,22.82,27.64,30.50,4.60,26.94,991.22,2031.92,2734.39,2820.81,3040.68,350.46,339.58,15.19,0000 0000 0000 0000 000000
2014-11-07 04:31:35,0.07,1.82,0.00,22.80,27.62,30.51,4.63,26.87,991.22,2031.89,2733.27,2820.02,3039.87,350.25,339.13,15.22,0000 0000 0000 0000 000000
2014-11-07 04:36:36,0.13,1.82,0.00,22.81,27.62,30.51,4.67,26.99,991.22,2031.94,2732.23,2819.19,3038.94,350.22,339.34,15.25,0000 0000 0000 0000 000000
2014-11-07 04:41:37,0.11,1.83,0.00,22.82,27.62,30.50,4.66,26.97,991.22,2031.97,2731.08,2818.34,3038.03,350.49,339.60,15.28,0000 0000 0000 0000 000000
2014-11-07 04:46:38,0.10,1.83,0.00,22.82,27.61,30.47,4.72,26.93,991.22,2031.96,2730.02,2817.59,3037.15,349.83,338.91,15.31,0000 0000 0000 0000 000000
2014-11-07 04:51:40,0.08,1.83,0.00,22.82,27.60,30.48,4.75,27.01,991.22,2031.97,2728.97,2816.92,3036.38,350.13,339.28,15.34,0000 0000 0000 0000 000000
2014-11-07 04:56:41,0.12,1.83,0.00,22.82,27.60,30.47,4.73,27.00,991.23,2031.99,2727.91,2816.09,3035.57,350.35,339.64,15.37,0000 0000 0000 0000 000000
2014-11-07 05:01:42,0.12,1.84,0.00,22.83,27.60,30.46,4.70,27.01,991.23,2031.99,2726.68,2815.42,3034.73,349.93,339.03,15.39,0000 0000 0000 0000 000000
2014-11-07 05:06:43,0.10,1.84,0.00,22.84,27.58,30.46,4.69,26.89,991.23,2031.99,2725.67,2814.66,3033.85,350.28,339.46,15.42,0000 0000 0000 0000 000000
2014-11-07 05:11:45,0.08,1.84,0.00,22.86,27.57,30.45,4.70,26.95,991.23,2031.99,2724.52,2813.92,3033.00,350.35,339.51,15.45,0000 0000 0000 0000 000000
2014-11-07 05:16:46,0.11,1.85,0.00,22.85,27.57,30.43,4.69,27.01,991.23,2031.99,2723.39,2813.08,3032.12,349.63,338.97,15.48,0000 0000 0000 0000 000000
2014-11-07 05:21:47,0.12,1.85,0.00,22.85,27.57,30.43,4.58,26.89,991.23,2031.99,2722.28,2812.26,3031.31,350.15,339.29,15.51,0000 0000 0000 0000 000000
2014-11-07 05:26:48,0.11,1.85,0.00,22.86,27.55,30.45,4.74,27.02,991.23,2031.99,2721.19,2811.51,3030.41,350.63,339.51,15.54,0000 0000 0000 0000 000000
2014-11-07 05:31:49,0.08,1.86,0.00,22.87,27.55,30.45,4.64,26.93,991.23,2031.99,2720.11,2810.85,3029.65,349.69,338.68,15.57,0000 0000 0000 0000 000000
2014-11-07 05:36:50,0.10,1.86,0.00,22.87,27.55,30.40,4.69,26.88,991.23,2031.99,2718.99,2809.99,3028.80,349.94,339.20,15.60,0000 0000 0000 0000 000000
2014-11-07 05:41:51,0.11,1.86,0.00,22.89,27.53,30.43,4.71,26.93,991.23,2031.99,2717.85,2809.09,3027.96,350.45,339.57,15.63,0000 0000 0000 0000 000000
2014-11-07 05:46:53,0.11,1.87,0.00,22.88,27.52,30.41,4.65,26.95,991.24,2032.00,2716.84,2808.42,3027.07,350.06,339.24,15.66,0000 0000 0000 0000 000000
2014-11-07 05:51:54,0.11,1.87,0.00,22.88,27.52,30.39,4.61,26.90,991.24,2032.00,2715.79,2807.72,3026.17,350.07,339.21,15.69,0000 0000 0000 0000 000000
2014-11-07 05:56:55,0.80,1.88,0.00,22.90,27.50,30.37,4.73,27.00,991.24,2032.01,2711.30,2803.91,3022.36,350.65,339.74,15.72,0000 0000 0000 0000 000000
2014-11-07 06:01:56,0.85,1.91,0.00,22.91,27.50,30.35,4.65,27.01,991.24,2032.01,2702.01,2796.08,3014.08,349.67,338.83,15.75,0000 0000 0000 0000 000000
2014-11-07 06:06:57,3.00,1.96,0.00,22.92,27.50,30.34,4.74,26.98,991.24,2032.00,2681.26,2779.04,2996.29,350.25,339.29,15.78,0000 0000 0000 0000 000000
2014-11-07 06:11:58,1.79,2.04,0.00,22.92,27.48,30.34,4.62,26.95,991.25,2032.00,2659.56,2761.27,2977.61,349.90,338.87,15.80,0000 0000 0000 0000 000000
2014-11-07 06:17:00,0.62,2.07,0.00,22.92,27.47,30.34,4.67,26.88,991.34,2032.00,2652.55,2755.55,2971.57,350.13,339.26,15.83,0000 0000 0000 0000 000000
2014-11-07 06:22:01,0.29,2.08,0.00,22.92,27.47,30.31,4.68,27.01,991.29,2032.00,2649.36,2753.03,2968.83,349.75,338.96,15.86,0000 0000 0000 0000 000000
2014-11-07 06:27:02,0.11,2.09,0.17,22.92,27.46,30.31,4.65,26.98,991.27,2032.00,2648.00,2752.03,2967.83,350.15,339.36,15.89,0000 0000 0000 0000 000000
2014-11-07 06:32:03,0.12,2.09,1.00,22.92,27.45,30.28,4.65,26.99,991.29,2032.02,2646.92,2751.21,2966.98,349.72,338.93,15.92,0000 0000 0000 0000 000000
2014-11-07 06:37:05,0.11,2.09,1.00,22.92,27.45,30.29,4.61,27.02,991.34,2032.01,2645.79,2750.66,2966.01,349.74,339.01,15.95,0000 0000 0000 0000 000000
2014-11-07 06:42:06,0.10,2.10,1.00,22.92,27.44,30.30,4.65,26.85,991.33,2032.00,2644.78,2749.81,2965.06,349.97,338.97,15.98,0000 0000 0000 0000 000000
2014-11-07 06:47:07,0.11,2.10,1.00,22.92,27.43,30.29,4.73,27.03,991.55,2032.01,2643.72,2749.01,2964.23,350.13,339.29,16.01,0000 0000 0000 0000 000000
2014-11-07 06:52:08,0.12,2.11,1.00,22.93,27.42,30.27,4.75,26.92,991.63,2032.00,2642.63,2748.14,2963.35,350.26,339.59,16.04,0000 0000 0000 0000 000000
2014-11-07 06:57:09,0.13,2.11,0.83,22.92,27.42,30.26,4.64,27.06,991.67,2032.01,2641.42,2747.29,2962.39,349.86,339.12,16.07,0000 0000 0000 0000 000000
2014-11-07 07:02:11,0.12,2.11,0.00,22.94,27.42,30.25,4.75,27.01,991.71,2032.01,2640.28,2746.45,2961.50,350.35,339.53,16.10,0000 0000 0000 0000 000000
2014-11-07 07:07:12,0.12,2.11,0.00,22.93,27.41,30.26,4.60,26.96,991.71,2032.01,2638.92,2745.62,2960.64,350.05,339.26,16.13,0000 0000 0000 0000 000000
2014-11-07 07:12:13,0.16,2.12,0.00,22.93,27.40,30.26,4.65,26.98,991.72,2032.02,2637.56,2744.53,2959.45,349.97,339.23,16.16,0000 0000 0000 0000 000000
2014-11-07 07:17:15,0.10,2.12,0.00,22.95,27.40,30.24,4.66,26.97,991.72,2032.03,2636.40,2743.77,2958.56,349.87,339.25,16.19,0000 0000 0000 0000 000000
2014-11-07 07:22:16,0.12,2.13,0.00,22.95,27.40,30.21,4.69,26.93,991.72,2032.04,2635.25,2742.88,2957.67,350.31,339.74,16.21,0000 0000 0000 0000 000000
2014-11-07 07:27:18,0.10,2.13,0.00,22.94,27.39,30.23,4.78,27.21,991.72,2032.03,2634.13,2742.04,2956.82,349.91,339.24,16.24,0000 0000 0000 0000 000000
2014-11-07 07:32:19,0.13,2.13,0.00,22.94,27.37,30.21,4.67,26.97,991.73,2032.06,2633.09,2741.21,2955.89,349.92,339.20,16.27,0000 0000 0000 0000 000000
2014-11-07 07:37:20,0.13,2.14,0.00,22.94,27.37,30.19,4.71,27.08,991.79,2032.08,2631.88,2740.47,2954.97,350.32,339.63,16.30,0000 0000 0000 0000 000000
2014-11-07 07:42:22,0.12,2.14,0.00,22.95,27.37,30.18,4.66,27.04,991.78,2032.07,2630.68,2739.55,2954.06,350.13,339.38,16.33,0000 0000 0000 0000 000000
2014-11-07 07:47:23,0.12,2.14,0.00,22.94,27.37,30.20,4.69,26.98,991.82,2032.10,2629.55,2738.76,2953.16,350.13,339.53,16.36,0000 0000 0000 0000 000000
2014-11-07 07:52:24,0.12,2.15,0.00,22.95,27.37,30.20,4.68,26.98,991.82,2032.10,2628.40,2737.87,2952.19,349.91,339.17,16.39,0000 0000 0000 0000 000000
2014-11-07 07:57:25,0.12,2.15,0.00,22.95,27.36,30.19,4.64,27.08,991.99,2032.10,2627.09,2736.97,2951.22,349.97,339.42,16.42,0000 0000 0000 0000 000000
2014-11-07 08:02:26,0.13,2.16,0.00,22.94,27.35,30.19,4.67,27.06,991.97,2032.16,2625.98,2736.08,2950.30,349.55,339.01,16.45,0000 0000 0000 0000 000000
2014-11-07 08:07:28,0.12,2.16,0.00,22.95,27.35,30.16,4.70,26.91,992.12,2032.13,2624.89,2735.29,2949.35,349.92,339.49,16.48,0000 0000 0000 0000 000000
2014-11-07 08:12:29,0.12,2.16,0.00,22.96,27.35,30.16,4.69,26.94,992.14,2032.20,2623.76,2734.49,2948.47,349.96,339.24,16.51,0000 0000 0000 0000 000000
2014-11-07 08:17:30,0.12,2.17,0.00,22.95,27.35,30.15,4.64,26.93,992.17,2032.12,2622.81,2733.55,2947.49,350.08,339.46,16.54,0000 0000 0000 0000 000000
2014-11-07 08:22:31,0.12,2.17,0.00,22.96,27.35,30.14,4.69,27.02,992.20,2032.22,2621.74,2732.81,2946.63,349.86,339.27,16.57,0000 0000 0000 0000 000000
2014-11-07 08:27:33,0.10,2.17,0.00,22.95,27.35,30.16,4.64,26.97,992.20,2032.07,2620.47,2731.85,2945.57,349.64,339.00,16.60,0000 0000 0000 0000 000000
2014-11-07 08:32:34,0.12,2.18,0.00,22.94,27.34,30.15,4.61,27.04,992.20,2032.05,2619.16,2730.91,2944.62,350.13,339.54,16.63,0000 0000 0000 0000 000000
2014-11-07 08:37:35,0.12,2.18,0.00,22.94,27.33,30.15,4.71,27.02,992.20,2032.04,2617.84,2729.96,2943.72,350.10,339.39,16.65,0000 0000 0000 0000 000000
2014-11-07 08:42:37,0.12,2.19,0.00,22.95,27.32,30.16,4.66,27.03,992.20,2032.02,2616.70,2729.04,2942.68,349.44,339.00,16.68,0000 0000 0000 0000 000000
2014-11-07 08:47:38,0.12,2.19,0.00,22.95,27.32,30.17,4.76,27.16,992.20,2032.07,2615.68,2728.26,2941.80,350.16,339.50,16.71,0000 0000 0000 0000 000000
2014-11-07 08:52:40,0.13,2.19,0.00,22.94,27.32,30.16,4.73,27.07,992.20,2032.03,2614.41,2727.37,2940.81,350.27,339.53,16.74,0000 0000 0000 0000 000000
2014-11-07 08:57:41,0.11,2.20,0.00,22.94,27.32,30.17,4.63,26.97,992.20,2032.05,2613.29,2726.50,2939.90,349.47,338.77,16.77,0000 0000 0000 0000 000000
2014-11-07 09:02:42,0.12,2.20,0.00,22.94,27.32,30.15,4.66,27.05,992.20,2032.06,2612.10,2725.68,2938.96,349.87,339.31,16.80,0000 0000 0000 0000 000000
2014-11-07 09:07:44,0.12,2.20,0.00,22.94,27.32,30.16,4.71,27.04,992.20,2032.06,2610.96,2724.82,2938.00,350.35,339.75,16.83,0000 0000 0000 0000 000000
2014-11-07 09:12:45,0.12,2.21,0.00,22.94,27.32,30.12,4.62,27.04,992.20,2032.05,2609.78,2723.97,2937.06,349.58,338.97,16.86,0000 0000 0000 0000 000000
2014-11-07 09:17:46,0.13,2.21,0.00,22.92,27.32,30.14,4.73,27.08,992.20,2032.06,2608.65,2723.07,2936.13,349.95,339.45,16.89,0000 0000 0000 0000 000000
2014-11-07 09:22:48,0.13,2.22,0.00,22.91,27.32,30.15,4.72,27.05,992.21,2032.10,2607.44,2722.18,2935.19,349.78,339.44,16.92,0000 0000 0000 0000 000000
2014-11-07 09:27:49,0.13,2.22,0.00,22.91,27.32,30.15,4.73,27.08,992.22,2032.08,2606.27,2721.25,2934.14,350.62,339.97,16.95,0000 0000 0000 0000 000000
2014-11-07 09:32:51,0.12,2.22,0.00,22.92,27.32,30.13,4.69,27.13,992.24,2032.07,2605.09,2720.38,2933.13,349.76,339.16,16.98,0000 0000 0000 0000 000000
2014-11-07 09:37:52,0.13,2.23,0.00,22.90,27.31,30.14,4.67,27.20,992.25,2032.05,2603.80,2719.51,2932.18,349.53,339.01,17.01,0000 0000 0000 0000 000000
2014-11-07 09:42:53,0.13,2.23,0.00,22.90,27.30,30.15,4.66,27.04,992.33,2032.04,2602.60,2718.51,2931.11,350.06,339.55,17.04,0000 0000 0000 0000 000000
2014-11-07 09:47:54,0.12,2.23,0.00,22.90,27.30,30.16,4.65,27.15,992.49,2032.04,2601.40,2717.60,2930.13,349.65,339.22,17.06,0000 0000 0000 0000 000000
2014-11-07 09:52:56,0.11,2.24,0.00,22.89,27.30,30.17,4.74,27.20,992.48,2032.02,2600.23,2716.74,2929.13,350.68,340.22,17.09,0000 0000 0000 0000 000000
2014-11-07 09:57:57,0.13,2.24,0.00,22.88,27.30,30.15,4.64,27.08,992.58,2032.03,2599.00,2715.81,2928.13,349.57,339.35,17.12,0000 0000 0000 0000 000000
2014-11-07 10:02:58,0.12,2.25,0.00,22.89,27.30,30.15,4.71,27.05,992.68,2032.02,2597.76,2714.92,2927.18,350.04,339.64,17.15,0000 0000 0000 0000 000000
2014-11-07 10:08:00,0.13,2.25,0.00,22.89,27.30,30.16,4.68,27.14,992.69,2032.04,2596.67,2714.02,2926.21,349.87,339.51,17.18,0000 0000 0000 0000 000000
2014-11-07 10:13:01,0.13,2.25,0.00,22.88,27.30,30.17,4.68,27.08,992.69,2032.02,2595.42,2713.09,2925.21,350.00,339.60,17.21,0000 0000 0000 0000 000000
2014-11-07 10:18:02,0.12,2.26,0.00,22.89,27.30,30.12,4.58,27.18,992.69,2032.00,2594.20,2712.19,2924.18,349.44,339.09,17.24,0000 0000 0000 0000 000000
2014-11-07 10:23:03,0.13,2.26,0.00,22.89,27.30,30.10,4.76,27.23,992.69,2032.01,2593.00,2711.33,2923.18,350.29,339.87,17.27,0000 0000 0000 0000 000000
2014-11-07 10:28:04,0.14,2.27,0.00,22.88,27.30,30.17,4.72,27.06,992.69,2032.00,2591.74,2710.29,2922.14,350.52,340.36,17.30,0000 0000 0000 0000 000000
2014-11-07 10:33:05,0.14,2.27,0.00,22.85,27.30,30.15,4.67,27.13,992.70,2032.01,2590.45,2709.41,2921.10,349.95,339.63,17.33,0000 0000 0000 0000 000000
2014-11-07 10:38:06,0.15,2.27,0.00,22.85,27.30,30.17,4.74,27.38,992.72,2032.01,2588.95,2708.35,2919.96,350.34,340.08,17.36,0000 0000 0000 0000 000000
2014-11-07 10:43:08,0.13,2.28,0.00,22.85,27.30,30.18,4.68,27.30,992.76,2032.00,2587.77,2707.41,2919.00,349.72,339.55,17.39,0000 0000 0000 0000 000000
2014-11-07 10:48:09,0.15,2.28,0.00,22.84,27.30,30.17,4.75,27.22,992.97,2032.01,2586.52,2706.46,2917.99,350.02,339.94,17.42,0000 0000 0000 0000 000000
2014-11-07 10:53:10,0.13,2.29,0.00,22.84,27.31,30.18,4.74,27.23,992.99,2032.01,2585.19,2705.44,2916.92,350.50,340.27,17.45,0000 0000 0000 0000 000000
2014-11-07 10:58:11,0.14,2.29,0.00,22.84,27.31,30.16,4.70,27.25,992.87,2032.01,2583.85,2704.51,2915.83,350.07,339.82,17.47,0000 0000 0000 0000 000000
2014-11-07 11:03:12,0.15,2.29,0.00,22.82,27.31,30.18,4.68,27.28,992.93,2032.00,2582.58,2703.52,2914.76,349.54,339.49,17.50,0000 0000 0000 0000 000000
2014-11-07 11:08:14,0.13,2.30,0.00,22.82,27.32,30.15,4.73,27.17,993.03,2032.01,2581.37,2702.56,2913.71,349.86,339.70,17.53,0000 0000 0000 0000 000000
2014-11-07 11:13:15,0.14,2.30,0.00,22.82,27.32,30.18,4.75,27.23,993.09,2032.00,2580.14,2701.55,2912.63,349.99,339.78,17.56,0000 0000 0000 0000 000000
2014-11-07 11:18:16,0.14,2.31,0.00,22.82,27.32,30.19,4.65,27.26,993.13,2032.00,2578.81,2700.59,2911.61,350.01,339.97,17.59,0000 0000 0000 0000 000000
2014-11-07 11:23:18,0.14,2.31,0.00,22.83,27.32,30.20,4.70,27.25,993.13,2032.00,2577.55,2699.67,2910.49,349.92,339.85,17.62,0000 0000 0000 0000 000000
2014-11-07 11:28:20,0.12,2.32,0.00,22.82,27.32,30.20,4.71,27.23,993.11,2032.01,2576.26,2698.76,2909.55,350.05,339.91,17.65,0000 0000 0000 0000 000000
2014-11-07 11:33:21,0.14,2.32,0.00,22.83,27.32,30.18,4.62,27.20,993.13,2032.00,2574.96,2697.76,2908.42,349.94,339.81,17.68,0000 0000 0000 0000 000000
2014-11-07 11:38:23,0.15,2.32,0.00,22.81,27.32,30.21,4.73,27.27,993.14,2032.00,2573.62,2696.75,2907.42,350.22,340.32,17.71,0000 0000 0000 0000 000000
2014-11-07 11:43:24,0.12,2.33,0.00,22.81,27.32,30.21,4.58,27.12,993.13,2032.00,2572.37,2695.84,2906.29,349.25,339.27,17.74,0000 0000 0000 0000 000000
2014-11-07 11:48:25,0.14,2.33,0.00,22.79,27.33,30.25,4.69,27.26,993.12,2032.00,2571.10,2694.83,2905.28,349.98,339.87,17.77,0000 0000 0000 0000 000000
2014-11-07 11:53:26,0.13,2.34,0.00,22.80,27.34,30.19,4.73,27.26,993.14,2032.00,2569.82,2693.93,2904.24,350.16,340.12,17.80,0000 0000 0000 0000 000000
2014-11-07 11:58:28,0.14,2.34,0.00,22.81,27.35,30.22,4.72,27.17,993.17,2032.00,2568.52,2692.96,2903.28,350.55,340.32,17.83,0000 0000 0000 0000 000000
2014-11-07 12:03:29,0.13,2.35,0.00,22.81,27.35,30.24,4.68,27.17,993.17,2032.00,2567.13,2691.94,2902.17,350.16,340.04,17.86,0000 0000 0000 0000 000000
2014-11-07 12:08:30,0.18,2.35,0.00,22.82,27.35,30.22,4.72,27.24,993.18,2032.00,2565.73,2690.80,2900.98,349.72,339.41,17.88,0000 0000 0000 0000 000000
2014-11-07 12:13:31,0.14,2.35,0.00,22.80,27.35,30.22,4.61,27.16,993.18,2032.00,2564.44,2689.77,2899.82,349.41,339.25,17.91,0000 0000 0000 0000 000000
2014-11-07 12:18:33,0.12,2.36,0.00,22.80,27.37,30.27,4.71,27.21,993.18,2032.00,2563.10,2688.84,2898.80,349.75,339.58,17.94,0000 0000 0000 0000 000000
2014-11-07 12:23:34,0.17,2.36,0.00,22.79,27.37,30.22,4.60,27.16,993.18,2032.00,2561.76,2687.82,2897.69,349.76,339.62,17.97,0000 0000 0000 0000 000000
2014-11-07 12:28:35,0.12,2.37,0.00,22.79,27.37,30.27,4.64,27.27,993.18,2031.99,2560.57,2686.93,2896.56,350.09,339.96,18.00,0000 0000 0000 0000 000000
2014-11-07 12:33:37,0.12,2.37,0.00,22.79,27.37,30.27,4.65,27.17,993.18,2031.99,2559.43,2686.04,2895.64,350.16,339.98,18.03,0000 0000 0000 0000 000000
2014-11-07 12:38:38,0.13,2.37,0.00,22.81,27.37,30.26,4.74,27.13,993.18,2031.99,2558.40,2685.08,2894.51,350.32,340.04,18.06,0000 0000 0000 0000 000000
2014-11-07 12:43:39,0.13,2.38,0.00,22.80,27.38,30.29,4.76,27.20,993.19,2031.99,2557.20,2684.14,2893.56,350.34,340.36,18.09,0000 0000 0000 0000 000000
2014-11-07 12:48:40,0.13,2.38,0.00,22.78,27.40,30.29,4.80,27.21,993.19,2031.99,2556.04,2683.26,2892.53,351.05,340.88,18.12,0000 0000 0000 0000 000000
2014-11-07 12:53:42,0.14,2.39,0.00,22.78,27.40,30.31,4.62,27.06,993.19,2031.99,2554.82,2682.34,2891.56,350.05,340.00,18.15,0000 0000 0000 0000 000000
2014-11-07 12:58:43,0.14,2.39,0.00,22.79,27.40,30.29,4.65,27.27,993.19,2031.99,2553.61,2681.45,2890.55,350.21,340.01,18.18,0000 0000 0000 0000 000000
2014-11-07 13:03:45,0.13,2.39,0.00,22.79,27.40,30.29,4.66,27.25,993.19,2031.99,2552.44,2680.54,2889.52,350.40,340.33,18.21,0000 0000 0000 0000 000000